Location: Casone le Fosse
(44.6547°N, 12.1103°E)
Time: 10:43:09
(UTC+00:00)

NOSS 3-4 (C) - Pass Details

Date: 29 October 2020
Orbit: 886 x 1326 km, 63.4° (Epoch: 06 November)

Event Time Altitude Azimuth Distance (km) Brightness Sun altitude
Rises 17:54:02 0° 323° (NW) 3,788 7.1 -20.0°
Reaches altitude 10° 17:56:39 10° 329° (NNW) 2,894 6.4 -20.5°
Maximum altitude 18:03:22 50° 44° (NE) 1,426 4.0 -21.7°
Enters shadow 18:05:43 38° 91° (E) 1,710 4.2 -22.1°
